When you browse on this site, cookies collect data to enhance your experience and personalize the content and advertising you see.
Visit our Privacy Policy to learn more. By continuing to use the site, you agree to this use of cookies and data.
  • în România
  • Lista ţărilor
  • Pe 7 zile
  • Temperatura apei
  • Meteo pe hartă
  • Widget-uri
  • user-avatar
    Intrare

    Meteo pe oră la Saint-Maur-des-Fosses

    Astăzi, 22 August, Joi

    Timp Temperatura Precipitaţii Vânt Presiune Umiditate
    00:00 +18°C° 0 mm 1 m/s 765 mmHg 52%
    01:00 +18°C° 0 mm 1 m/s 765 mmHg 52%
    02:00 +18°C° 0 mm 1 m/s 764 mmHg 52%
    03:00 +16°C° 0 mm 1 m/s 764 mmHg 52%
    04:00 +16°C° 0 mm 1 m/s 764 mmHg 52%
    05:00 +16°C° 0 mm 1 m/s 764 mmHg 53%
    06:00 +16°C° 0 mm 1 m/s 765 mmHg 53%
    07:00 +20°C° 0 mm 1 m/s 765 mmHg 47%
    08:00 +22°C° 0 mm 1 m/s 765 mmHg 42%
    09:00 +24°C° 0 mm 2 m/s 765 mmHg 36%
    10:00 +25°C° 0 mm 2 m/s 765 mmHg 34%
    11:00 +26°C° 0 mm 2 m/s 765 mmHg 32%
    12:00 +27°C° 0 mm 2 m/s 765 mmHg 30%
    13:00 +28°C° 0 mm 2 m/s 764 mmHg 29%
    14:00 +28°C° 0 mm 2 m/s 764 mmHg 28%
    15:00 +29°C° 0 mm 2 m/s 764 mmHg 27%
    16:00 +27°C° 0 mm 2 m/s 764 mmHg 31%
    17:00 +26°C° 0 mm 2 m/s 764 mmHg 35%
    18:00 +25°C° 0 mm 2 m/s 763 mmHg 39%
    19:00 +24°C° 0 mm 2 m/s 764 mmHg 42%
    20:00 +23°C° 0 mm 2 m/s 764 mmHg 44%
    21:00 +20°C° 0 mm 2 m/s 765 mmHg 47%
    22:00 +20°C° 0 mm 2 m/s 765 mmHg 50%
    23:00 +19°C° 0 mm 2 m/s 765 mmHg 53%

    Mâine, 23 August, Vineri

    Timp Temperatura Precipitaţii Vânt Presiune Umiditate
    00:00 +18°C° 0 mm 2 m/s 764 mmHg 56%
    01:00 +18°C° 0 mm 2 m/s 764 mmHg 58%
    02:00 +17°C° 0 mm 2 m/s 764 mmHg 60%
    03:00 +17°C° 0 mm 2 m/s 764 mmHg 61%
    04:00 +17°C° 0 mm 2 m/s 764 mmHg 62%
    05:00 +17°C° 0 mm 2 m/s 764 mmHg 63%
    06:00 +17°C° 0 mm 2 m/s 763 mmHg 64%
    07:00 +19°C° 0 mm 2 m/s 764 mmHg 58%
    08:00 +21°C° 0 mm 2 m/s 764 mmHg 53%
    09:00 +24°C° 0 mm 2 m/s 764 mmHg 48%
    10:00 +26°C° 0 mm 2 m/s 763 mmHg 44%
    11:00 +27°C° 0 mm 2 m/s 763 mmHg 40%
    12:00 +29°C° 0 mm 3 m/s 762 mmHg 36%
    13:00 +29°C° 0 mm 3 m/s 762 mmHg 34%
    14:00 +30°C° 0 mm 3 m/s 762 mmHg 32%
    15:00 +30°C° 0 mm 3 m/s 762 mmHg 30%
    16:00 +29°C° 0 mm 3 m/s 761 mmHg 35%
    17:00 +28°C° 0 mm 3 m/s 761 mmHg 39%
    18:00 +27°C° 0 mm 3 m/s 761 mmHg 43%
    19:00 +26°C° 0 mm 3 m/s 761 mmHg 47%
    20:00 +24°C° 0 mm 2 m/s 761 mmHg 51%
    21:00 +23°C° 0 mm 2 m/s 761 mmHg 56%
    22:00 +21°C° 0 mm 2 m/s 761 mmHg 58%
    23:00 +21°C° 0 mm 2 m/s 761 mmHg 60%

    Poimâine, 24 August, Sâmbătă

    Timp Temperatura Precipitaţii Vânt Presiune Umiditate
    00:00 +20°C° 0 mm 2 m/s 760 mmHg 62%
    01:00 +20°C° 0 mm 2 m/s 760 mmHg 65%
    02:00 +19°C° 0 mm 2 m/s 760 mmHg 68%
    03:00 +20°C° 0 mm 1 m/s 760 mmHg 72%
    04:00 +19°C° 0 mm 2 m/s 760 mmHg 73%
    05:00 +19°C° 0 mm 2 m/s 759 mmHg 74%
    06:00 +19°C° 0 mm 2 m/s 759 mmHg 75%
    07:00 +21°C° 0 mm 2 m/s 759 mmHg 68%
    08:00 +24°C° 0 mm 2 m/s 760 mmHg 61%
    09:00 +26°C° 0 mm 2 m/s 760 mmHg 54%
    10:00 +28°C° 0 mm 2 m/s 759 mmHg 47%
    11:00 +29°C° 0 mm 2 m/s 759 mmHg 41%
    12:00 +31°C° 0 mm 2 m/s 759 mmHg 34%
    13:00 +32°C° 0 mm 1 m/s 758 mmHg 31%
    14:00 +32°C° 0 mm 1 m/s 758 mmHg 28%
    15:00 +31°C° 0 mm 0 m/s 758 mmHg 25%
    16:00 +32°C° 0 mm 1 m/s 757 mmHg 28%
    17:00 +31°C° 0 mm 1 m/s 757 mmHg 31%
    18:00 +30°C° 0 mm 1 m/s 757 mmHg 33%
    19:00 +28°C° 0 mm 1 m/s 757 mmHg 37%
    20:00 +27°C° 0 mm 2 m/s 757 mmHg 41%
    21:00 +25°C° 0 mm 2 m/s 758 mmHg 44%
    22:00 +25°C° 0 mm 2 m/s 758 mmHg 48%
    23:00 +24°C° 0 mm 2 m/s 757 mmHg 51%

    25 August, Duminică

    Timp Temperatura Precipitaţii Vânt Presiune Umiditate
    00:00 +23°C° 0 mm 2 m/s 757 mmHg 54%
    01:00 +23°C° 0 mm 1 m/s 757 mmHg 56%
    02:00 +22°C° 0 mm 1 m/s 757 mmHg 59%
    03:00 +22°C° 0 mm 1 m/s 757 mmHg 61%
    04:00 +22°C° 0 mm 1 m/s 757 mmHg 60%
    05:00 +22°C° 0 mm 1 m/s 757 mmHg 60%
    06:00 +22°C° 0 mm 1 m/s 757 mmHg 59%
    07:00 +24°C° 0 mm 1 m/s 757 mmHg 52%
    08:00 +27°C° 0 mm 1 m/s 758 mmHg 44%
    09:00 +29°C° 0 mm 1 m/s 758 mmHg 37%
    10:00 +31°C° 0 mm 1 m/s 758 mmHg 33%
    11:00 +32°C° 0 mm 1 m/s 758 mmHg 29%
    12:00 +34°C° 0 mm 1 m/s 758 mmHg 25%
    13:00 +35°C° 0 mm 1 m/s 758 mmHg 23%
    14:00 +35°C° 0 mm 1 m/s 757 mmHg 22%
    15:00 +36°C° 0 mm 1 m/s 757 mmHg 20%
    16:00 +34°C° 0 mm 1 m/s 758 mmHg 23%
    17:00 +33°C° 0 mm 1 m/s 758 mmHg 26%
    18:00 +32°C° 0 mm 2 m/s 758 mmHg 29%
    19:00 +30°C° 0 mm 2 m/s 758 mmHg 33%
    20:00 +29°C° 0 mm 2 m/s 759 mmHg 36%
    21:00 +27°C° 0 mm 2 m/s 759 mmHg 40%
    22:00 +27°C° 0 mm 2 m/s 759 mmHg 42%
    23:00 +26°C° 0 mm 2 m/s 759 mmHg 44%

    26 August, Luni

    Timp Temperatura Precipitaţii Vânt Presiune Umiditate
    00:00 +25°C° 0 mm 1 m/s 759 mmHg 46%
    01:00 +25°C° 0 mm 1 m/s 759 mmHg 48%
    02:00 +24°C° 0 mm 1 m/s 759 mmHg 50%
    03:00 +23°C° 0 mm 1 m/s 759 mmHg 52%
    04:00 +23°C° 0 mm 1 m/s 759 mmHg 54%
    05:00 +23°C° 0 mm 1 m/s 759 mmHg 56%
    06:00 +23°C° 0 mm 1 m/s 760 mmHg 57%
    07:00 +25°C° 0 mm 2 m/s 760 mmHg 53%
    08:00 +27°C° 0 mm 2 m/s 760 mmHg 48%
    09:00 +29°C° 0 mm 2 m/s 760 mmHg 43%
    10:00 +30°C° 0 mm 2 m/s 760 mmHg 39%
    11:00 +32°C° 0 mm 2 m/s 760 mmHg 35%
    12:00 +35°C° 0 mm 2 m/s 760 mmHg 31%
    13:00 +35°C° 0 mm 3 m/s 759 mmHg 30%
    14:00 +35°C° 0 mm 3 m/s 759 mmHg 29%
    15:00 +36°C° 0 mm 3 m/s 759 mmHg 28%
    16:00 +34°C° 0 mm 3 m/s 758 mmHg 32%
    17:00 +33°C° 0 mm 3 m/s 758 mmHg 35%
    18:00 +31°C° 0 mm 3 m/s 758 mmHg 39%
    19:00 +30°C° 0 mm 3 m/s 759 mmHg 42%
    20:00 +28°C° 0 mm 2 m/s 759 mmHg 45%
    21:00 +27°C° 0 mm 2 m/s 759 mmHg 48%
    22:00 +26°C° 0 mm 2 m/s 759 mmHg 51%
    23:00 +26°C° 0 mm 2 m/s 759 mmHg 53%

    27 August, Marţi

    Timp Temperatura Precipitaţii Vânt Presiune Umiditate
    00:00 +25°C° 0 mm 2 m/s 759 mmHg 55%
    01:00 +25°C° 0 mm 2 m/s 758 mmHg 57%
    02:00 +24°C° 0 mm 2 m/s 758 mmHg 59%
    03:00 +24°C° 0 mm 2 m/s 758 mmHg 61%
    04:00 +24°C° 0 mm 2 m/s 758 mmHg 62%
    05:00 +24°C° 0 mm 1 m/s 758 mmHg 62%
    06:00 +24°C° 0 mm 1 m/s 758 mmHg 63%
    07:00 +26°C° 0 mm 2 m/s 758 mmHg 57%
    08:00 +28°C° 0 mm 2 m/s 758 mmHg 52%
    09:00 +30°C° 0 mm 2 m/s 758 mmHg 46%
    10:00 +31°C° 0 mm 2 m/s 757 mmHg 41%
    11:00 +33°C° 0 mm 3 m/s 757 mmHg 37%
    12:00 +35°C° 0 mm 3 m/s 756 mmHg 32%
    13:00 +35°C° 0 mm 3 m/s 756 mmHg 31%
    14:00 +35°C° 0 mm 3 m/s 755 mmHg 30%
    15:00 +35°C° 0 mm 3 m/s 755 mmHg 29%
    16:00 +34°C° 0 mm 3 m/s 755 mmHg 32%
    17:00 +33°C° 0 mm 3 m/s 755 mmHg 35%
    18:00 +31°C° 0 mm 3 m/s 754 mmHg 38%
    19:00 +30°C° 0 mm 2 m/s 755 mmHg 40%
    20:00 +29°C° 0 mm 2 m/s 755 mmHg 43%
    21:00 +28°C° 0 mm 2 m/s 755 mmHg 45%
    22:00 +27°C° 0 mm 2 m/s 755 mmHg 46%
    23:00 +27°C° 0 mm 1 m/s 755 mmHg 47%
    Arată mai mult